Вернуться в каталог

COSMOS 2251 DEB

АктивенLEO
NORAD 33819·DEBRIS·🇷🇺 Russia

Запущен Jun 16, 1993 с Plesetsk Cosmodrome

Loading…

Ближайшие Пролёты (ближайшие 24 часа)

TLE

СвежийSource: Space-Track

Эпоха: Sep 14, 2026, 10:36 UTC

1 33819U 93036BL  26257.44201940  .00001161  00000-0  41459-3 0  9996
2 33819  74.1774  70.7458 0088460 214.4223 165.0168 14.33065874914441

Отслеживайте COSMOS 2251 DEB в реальном времени с AllMySat

Download on the App Store